Flag for Denmark Weather past 2 weeks in Aalborg, Denmark

Now
72 °F

Sunny.


Feels Like: 75 °F
Forecast: 62 / 74 °F
Wind: 17 mph from Southeast

Location: Aalborg Airport

Current Time: Jul 2, 2015 at 12:16:44 PM

Latest Report: Jul 2, 2015 at 11:20 AM


Visibility: 10 mi

Pressure: 30.30 "Hg

Humidity: 69%

Dew point: 61 °F

Location of AalborgLocation

Historic Weather in Aalborg — Graph

°F

Aalborg temperature yesterday

Maximum temperature yesterday: 75 °F (at 1:20 PM)
Minimum temperature yesterday: 52 °F (at 4:20 AM)
Average temperature yesterday: 65 °F

Past Weeks' High & Low Weather Summary

 TemperatureHumidityPressure
High75 °F (Jul 1, 1:20 PM)100% (Jun 17, 11:20 AM)30.30 "Hg (Jun 17, 11:20 AM)
Low48 °F (Jun 23, 6:20 AM)36% (Jul 1, 1:20 PM)29.59 "Hg (Jun 22, 6:50 PM)
Average58 °F79%29.93 "Hg
* Reported Jun 17 11:20 AM — Jul 2 11:20 AM, Aalborg, Weather by CustomWeather, © 2015

Note: Actual official high and low records may vary slightly from our data, if they occured in-between our weather recording intervals... More about our weather records

Advertising

Aalborg weather history for previous 24 hours

 ConditionsComfort  
Time TempWeatherWind HumidityBarometerVisibility
11:20 AM
Thu, Jul 2
72 °FSunny.17 mph69%30.30 "Hg10 mi
10:50 AM72 °FSunny.16 mph65%30.30 "Hg10 mi
10:20 AM72 °FSunny.14 mph65%30.30 "Hg10 mi
9:50 AM70 °FSunny.13 mph64%30.30 "Hg10 mi
9:20 AM70 °FSunny.14 mph64%30.30 "Hg10 mi
8:50 AM68 °FSunny.14 mph69%30.30 "Hg10 mi
8:20 AM68 °FSunny.13 mph64%30.30 "Hg10 mi
7:50 AM66 °FSunny.14 mph73%30.30 "Hg10 mi
7:20 AM64 °FSunny.13 mph78%30.27 "Hg10 mi
6:50 AM64 °FSunny.13 mph78%30.30 "Hg10 mi
6:20 AM63 °FSunny.9 mph83%30.30 "Hg10 mi
5:50 AM61 °FSunny.10 mph88%30.30 "Hg10 mi
5:20 AM61 °FClear.8 mph88%30.27 "Hg10 mi
4:50 AM61 °FClear.7 mph83%30.30 "Hg10 mi
4:20 AM61 °FClear.8 mph83%30.30 "Hg10 mi
3:50 AM61 °FClear.9 mph88%30.27 "Hg10 mi
3:20 AM59 °FClear.9 mph94%30.27 "Hg10 mi
2:50 AM59 °FClear.8 mph88%30.27 "Hg10 mi
2:20 AM59 °FClear.7 mph88%30.27 "Hg10 mi
1:50 AM61 °FClear.7 mph83%30.27 "Hg10 mi
1:20 AM57 °FClear.5 mph88%30.27 "Hg10 mi
12:50 AM59 °FClear.7 mph82%30.27 "Hg10 mi
12:20 AM59 °FClear.8 mph82%30.27 "Hg10 mi
11:50 PM
Wed, Jul 1
61 °FClear.7 mph77%30.27 "Hg10 mi
11:20 PM59 °FClear.5 mph82%30.27 "Hg10 mi
10:50 PM61 °FSunny.8 mph77%30.27 "Hg10 mi
10:20 PM63 °FSunny.8 mph68%30.27 "Hg10 mi
9:50 PM64 °FSunny.8 mph64%30.24 "Hg10 mi
9:20 PM66 °FSunny.10 mph60%30.24 "Hg10 mi
8:50 PM68 °FSunny.12 mph53%30.24 "Hg10 mi
8:20 PM68 °FSunny.12 mph56%30.24 "Hg10 mi
7:50 PM70 °FSunny.13 mph46%30.24 "Hg10 mi
7:20 PM72 °FSunny.14 mph41%30.24 "Hg10 mi
6:50 PM72 °FSunny.14 mph44%30.24 "Hg10 mi
6:20 PM72 °FSunny.14 mph44%30.24 "Hg10 mi
5:50 PM73 °FSunny.14 mph53%30.24 "Hg10 mi
5:20 PM73 °FSunny.13 mph57%30.24 "Hg10 mi
4:50 PM75 °FPassing clouds.10 mph54%30.24 "HgN/A
4:20 PM75 °FPassing clouds.12 mph44%30.24 "HgN/A
3:50 PM75 °FSunny.13 mph50%30.24 "Hg10 mi
3:20 PM75 °FPassing clouds.9 mph44%30.24 "HgN/A
2:50 PM75 °FPassing clouds.9 mph47%30.27 "HgN/A
2:20 PM75 °FPassing clouds.6 mph39%30.27 "HgN/A
1:50 PM75 °FPassing clouds.7 mph41%30.27 "HgN/A
1:20 PM75 °FPassing clouds.7 mph36%30.27 "HgN/A
12:50 PM73 °FSunny.3 mph44%30.27 "Hg10 mi
12:20 PM72 °FPassing clouds.5 mph47%30.27 "HgN/A
Weather by CustomWeather, © 2015

See weather overviewHow to use our weather pages